Home > Weather > Paradise > Past weeks

Flag for USA Past Weather in Paradise, Nevada, USA — Yesterday and Last 2 Weeks

Now
88 °F

Passing clouds.


Feels Like: 84 °F
Forecast: 73 / 96 °F
Wind: 7 mph from Southwest

Location: McCarran International Airport

Current Time: Aug 26, 2016 at 12:00:06 AM

Latest Report: Aug 25, 2016 at 10:56 PM


Visibility: 10 mi

Pressure: 29.71 "Hg (27.64 "Hg at 643m altitude)

Humidity: 13%

Dew Point: 31 °F

Location of ParadiseLocation

Past Weather in Paradise — Graph

°F

Paradise Temperature Yesterday

Maximum temperature yesterday: 100 °F (at 12:56 PM)
Minimum temperature yesterday: 82 °F (at 6:56 AM)
Average temperature yesterday: 92 °F

High & Low Weather Summary for the Past Weeks

 TemperatureHumidityPressure
High109 °F (Aug 14, 1:56 PM)63% (Aug 23, 4:56 AM)30.06 "Hg (Aug 23, 4:56 AM)
Low71 °F (Aug 23, 4:56 AM)1% (Aug 16, 3:56 PM)29.61 "Hg (Aug 20, 5:56 PM)
Average92 °F16%29.77 "Hg
* Reported Aug 10 10:56 PM — Aug 25 10:56 PM, Paradise, Weather by CustomWeather, © 2016

Note: Actual official high and low records may vary slightly from our data, if they occured in-between our weather recording intervals... More about our weather records

Advertising

Paradise Weather History for the Previous 24 Hours

Scroll right to see more
 ConditionsComfort  
Time TempWeatherWind HumidityBarometerVisibility
10:56 PM
Thu, Aug 25
88 °FPassing clouds.7 mph13%29.71 "Hg10 mi
9:56 PM91 °FPassing clouds.5 mph11%29.71 "Hg10 mi
8:56 PM93 °FPassing clouds.3 mph10%29.70 "Hg10 mi
7:56 PM96 °FPassing clouds.9 mph9%29.68 "Hg10 mi
6:56 PM97 °FPassing clouds.10 mph9%29.68 "Hg10 mi
5:56 PM98 °FPassing clouds.14 mph8%29.68 "Hg10 mi
4:56 PM99 °FPassing clouds.21 mph8%29.68 "Hg10 mi
3:56 PM100 °FPassing clouds.16 mph8%29.69 "Hg10 mi
2:56 PM100 °FScattered clouds.17 mph8%29.71 "Hg10 mi
1:56 PM100 °FScattered clouds.17 mph8%29.73 "Hg10 mi
12:56 PM100 °FScattered clouds.12 mph8%29.75 "Hg10 mi
11:56 AM99 °FPassing clouds.10 mph9%29.78 "Hg10 mi
10:56 AM96 °FPassing clouds.9 mph9%29.80 "Hg10 mi
9:56 AM94 °FPassing clouds.5 mph12%29.82 "Hg10 mi
8:56 AM90 °FPassing clouds.8 mph15%29.81 "Hg10 mi
7:56 AM87 °FPassing clouds.8 mph16%29.81 "Hg10 mi
6:56 AM82 °FPassing clouds.No wind20%29.80 "Hg10 mi
5:56 AM83 °FPassing clouds.7 mph19%29.77 "Hg10 mi
4:56 AM85 °FClear.13 mph17%29.76 "Hg10 mi
3:56 AM84 °FClear.8 mph17%29.75 "Hg10 mi
2:56 AM86 °FClear.6 mph16%29.75 "Hg10 mi
1:56 AM89 °FClear.9 mph13%29.74 "Hg10 mi
12:56 AM90 °FPassing clouds.8 mph13%29.75 "Hg10 mi
Weather by CustomWeather, © 2016

See weather overviewHow to use our weather pages